カタログに戻る

SL-3 R/B

運用中PO
NORAD 7275·ROCKET BODY·🇷🇺 Russia

打ち上げ Apr 24, 1974 から Plesetsk Cosmodrome

Loading…

次のパス (今後24時間)

TLE

最新Source: Space-Track

元期: Sep 14, 2026, 18:56 UTC

1 07275U 74025B   26257.78922123 -.00000072  00000-0 -50419-4 0  9999
2 07275  81.2408 286.0524 0058619  93.1738 267.6140 14.07104507687795

AllMySatでSL-3 R/Bをリアルタイム追跡

Download on the App Store